Change the Weather History Date:

Tuesday, April 30, 2013

  Actual Average Record
Temperature  
Mean Temperature 84 °F 77 °F  
Max Temperature 102 °F 90 °F 103 °F (1943)
Min Temperature 66 °F 64 °F 45 °F (1942)
Degree Days  
Heating Degree Days 0 0  
Month to date heating degree days 0 12  
Since 1 July heating degree days 705 686  
Cooling Degree Days 19 12  
Month to date cooling degree days 310 253  
Year to date cooling degree days 519 406  
Growing Degree Days 34 (Base 50)    
Moisture  
Dew Point 29 °F    
Average Humidity 19    
Maximum Humidity 33    
Minimum Humidity 5    
Precipitation  
Precipitation 0.00 in 0.00 in 0.10 in (2009)
Month to date precipitation T 0.15  
Year to date precipitation 1.11 1.24  
Sea Level Pressure  
Sea Level Pressure 29.65 in    
Wind  
Wind Speed 11 mph (South)    
Max Wind Speed 24 mph    
Max Gust Speed 30 mph    
Visibility 10 miles    
Events      
T = Trace of Precipitation, MM = Missing Value Source: NWS Daily Summary

Daily Weather History Graph

Daily Weather History Graph

Search for Another Location

Airport or City:

Trip Planner

Search our weather history database for the weather conditions in past years. The results will help you decide how hot, cold, wet, or windy it might be!

Date:

Astronomy

Apr. 30, 2013 Rise Set
Actual Time 5:52 AM MST 7:19 PM MST
Civil Twilight 5:25 AM MST 7:45 PM MST
Nautical Twilight 4:54 AM MST 8:17 PM MST
Astronomical Twilight 4:22 AM MST 8:49 PM MST
Moon No Moon Rise 10:28 AM MST (4/30)
Length of Visible Light 14h 19m
Length of Day
13h 27m
Waning Gibbous, 69% of the Moon is Illuminated
Apr 30
Waning Gibbous
May 2
Last Quarter
May 9
New
May 17
First Quarter
May 24
Full

Hourly Weather History & Observations

Time (MST) Temp. Dew Point Humidity Pressure Visibility Wind Dir Wind Speed Gust Speed Precip Events Conditions
12:55 AM 75.0 °F 30.9 °F 20% 29.64 in 10.0 mi Calm Calm - N/A   Clear
1:55 AM 73.9 °F 26.1 °F 17% 29.63 in 10.0 mi South 4.6 mph - N/A   Clear
2:55 AM 75.0 °F 27.0 °F 17% 29.63 in 10.0 mi SSE 5.8 mph - N/A   Clear
3:55 AM 70.0 °F 30.0 °F 23% 29.64 in 10.0 mi SSW 4.6 mph - N/A   Clear
4:55 AM 70.0 °F 27.0 °F 20% 29.64 in 10.0 mi South 3.5 mph - N/A   Clear
5:55 AM 70.0 °F 30.0 °F 23% 29.65 in 10.0 mi Calm Calm - N/A   Partly Cloudy
6:55 AM 69.1 °F 30.9 °F 24% 29.67 in 10.0 mi South 6.9 mph - N/A   Partly Cloudy
7:55 AM 75.0 °F 45.0 °F 34% 29.67 in 10.0 mi South 9.2 mph - N/A   Partly Cloudy
8:55 AM 82.9 °F 26.1 °F 13% 29.68 in 10.0 mi Variable 3.5 mph - N/A   Partly Cloudy
9:55 AM 87.1 °F 25.0 °F 10% 29.69 in 10.0 mi South 5.8 mph - N/A   Partly Cloudy
10:55 AM 93.0 °F 26.1 °F 9% 29.69 in 10.0 mi SSE 11.5 mph - N/A   Partly Cloudy
11:55 AM 96.1 °F 26.1 °F 8% 29.68 in 10.0 mi South 15.0 mph - N/A   Scattered Clouds
12:55 PM 99.0 °F 26.1 °F 8% 29.66 in 10.0 mi South 16.1 mph 23.0 mph N/A   Scattered Clouds
1:55 PM 100.9 °F 26.1 °F 7% 29.65 in 10.0 mi South 15.0 mph 24.2 mph N/A   Scattered Clouds
2:55 PM 100.9 °F 21.9 °F 6% 29.62 in 10.0 mi South 18.4 mph - N/A   Scattered Clouds
3:55 PM 100.0 °F 24.1 °F 7% 29.60 in 10.0 mi South 18.4 mph - N/A   Scattered Clouds
4:55 PM 98.1 °F 17.1 °F 5% 29.60 in 10.0 mi South 21.9 mph - N/A   Scattered Clouds
5:55 PM 93.9 °F 21.0 °F 7% 29.60 in 10.0 mi South 17.3 mph - N/A   Scattered Clouds
6:55 PM 90.0 °F 21.0 °F 8% 29.61 in 10.0 mi South 17.3 mph - N/A   Scattered Clouds
7:55 PM 84.9 °F 23.0 °F 10% 29.62 in 10.0 mi SSE 12.7 mph - N/A   Scattered Clouds
8:55 PM 82.9 °F 35.1 °F 18% 29.65 in 10.0 mi SSE 16.1 mph 24.2 mph N/A   Scattered Clouds
9:55 PM 81.0 °F 37.9 °F 21% 29.65 in 10.0 mi SSE 18.4 mph - N/A   Clear
10:55 PM 78.1 °F 39.0 °F 25% 29.67 in 10.0 mi South 12.7 mph - N/A   Clear
11:55 PM 75.0 °F 43.0 °F 32% 29.69 in 10.0 mi South 12.7 mph - N/A   Clear